User: anonymous   Login
Location: Ravensburg
(47.7866°N, 9.6124°E)
Time: 00:29:51
(UTC+01:00)
Language:

UWE-3 - Orbit

View from above orbital plane
View from above orbital plane
View from above satellite
View from above satellite

Ground track
Ground track

The orbit is defined by the following mean orbital elements,

1 39446U          26073.61172463 +.00000000 +00000-0 +60832-3 0 00009
2 39446  97.8593  29.1621 0047907 275.1721  84.4033 14.96242909    00
Epoch (UTC): 14 March 2026 14:40:53
Eccentricity: 0.0047907
inclination: 97.8593°
perigee height: 545 km
apogee height: 612 km
right ascension of ascending node: 29.1621°
argument of perigee: 275.1721°
revolutions per day: 14.96242909
mean anomaly at epoch: 84.4033°

The dashed part of the orbit path shows where the satellite is in the earth's shadow,  

DLR